Location: Bon Acre
(42.6442°N, 73.5758°W)
Time: 16:26:04
(UTC+00:00)

Cosmos 2297 Rocket - Pass Details

Date: 14 December 2025
Orbit: 837 x 844 km, 71.0° (Epoch: 16 January)

Event Time Altitude Azimuth Distance (km) Brightness Sun altitude
Rises 22:05:16 0° 328° (NNW) 3,410 5.5 -8.0°
Reaches altitude 10° 22:07:51 10° 321° (NW) 2,471 4.8 -8.4°
Maximum altitude 22:13:05 39° 254° (WSW) 1,236 3.8 -9.3°
Drops below altitude 10° 22:18:16 10° 187° (S) 2,454 5.0 -10.2°
Sets 22:20:50 0° 180° (S) 3,384 5.6 -10.6°
